AUA75N LPFR-LOWG

Flight info

Callsign AUA75N
Flight time 2h 30m
Altitude 31000
Route TUPIX Y135 NAPES N747 YES M985 BCN N870 DIBER DCT STP Y15 PIGOS DCT NOSTA DCT GEN DCT OSMEB DCT ALBET DCT TIBRO DCT ABIRI ABIRI2M
Aircraft A321/M-SDE3FGHIRWY/LB1

Departure

Time 2026-05-06 14:44
Airport Faro - Gago Coutinho International Airport (LPFR)

Arrival

Time 2026-05-06 17:14
Airport Graz Airport (LOWG)
Time Latitude Longitude Altitude Speed Heading
2026-05-06 14:27 37.01753 -7.97025 22 ft 0 kts 160°
2026-05-06 14:37 37.01773 -7.97033 22 ft 4 kts 168°
2026-05-06 14:37 37.01799 -7.97039 22 ft 4 kts 155°
2026-05-06 14:38 37.01808 -7.97053 20 ft 4 kts 96°
2026-05-06 14:38 37.01812 -7.97086 20 ft 4 kts 100°
2026-05-06 14:38 37.01815 -7.97108 21 ft 3 kts 100°
2026-05-06 14:38 37.01816 -7.97113 24 ft 0 kts 99°
2026-05-06 14:40 37.01815 -7.97111 21 ft 2 kts 99°
2026-05-06 14:40 37.01808 -7.97055 20 ft 10 kts 99°
2026-05-06 14:41 37.01797 -7.96976 20 ft 10 kts 99°
2026-05-06 14:41 37.01760 -7.96901 20 ft 12 kts 168°
2026-05-06 14:41 37.01669 -7.96862 20 ft 17 kts 114°
2026-05-06 14:41 37.01645 -7.96709 20 ft 21 kts 99°
2026-05-06 14:42 37.01619 -7.96515 20 ft 23 kts 99°
2026-05-06 14:42 37.01591 -7.96329 20 ft 21 kts 101°
2026-05-06 14:42 37.01566 -7.96158 20 ft 19 kts 100°
2026-05-06 14:42 37.01544 -7.96002 19 ft 17 kts 100°
2026-05-06 14:43 37.01511 -7.95861 18 ft 19 kts 135°
2026-05-06 14:43 37.01371 -7.95869 21 ft 21 kts 221°
2026-05-06 14:43 37.01372 -7.96097 22 ft 50 kts 279°
2026-05-06 14:43 37.01471 -7.96806 28 ft 113 kts 279°
2026-05-06 14:44 37.01632 -7.97983 121 ft 152 kts 278°
2026-05-06 14:44 37.01833 -7.99264 765 ft 153 kts 278°
2026-05-06 14:44 37.02037 -8.00654 1180 ft 171 kts 281°
2026-05-06 14:45 37.02508 -8.03889 2047 ft 206 kts 283°
2026-05-06 14:45 37.02769 -8.05686 2432 ft 211 kts 282°
2026-05-06 14:45 37.02996 -8.07477 2934 ft 212 kts 274°
2026-05-06 14:45 37.02562 -8.09219 3419 ft 218 kts 233°
2026-05-06 14:46 37.01305 -8.10294 3847 ft 226 kts 197°
2026-05-06 14:46 36.99734 -8.10286 4285 ft 231 kts 159°
2026-05-06 14:46 36.98443 -8.09127 4659 ft 235 kts 122°
2026-05-06 14:46 36.97614 -8.07276 4782 ft 256 kts 115°
2026-05-06 14:47 36.96784 -8.05211 5057 ft 273 kts 114°
2026-05-06 14:47 36.96257 -8.02937 5612 ft 274 kts 91°
2026-05-06 14:47 36.96463 -8.00586 6230 ft 274 kts 74°
2026-05-06 14:47 36.96882 -7.98255 6808 ft 276 kts 74°
2026-05-06 14:48 36.97319 -7.95898 7363 ft 280 kts 75°
2026-05-06 14:48 36.97764 -7.93507 7935 ft 284 kts 75°
2026-05-06 14:48 36.98214 -7.91076 8472 ft 289 kts 76°
2026-05-06 14:48 36.98664 -7.88606 9019 ft 294 kts 77°
2026-05-06 14:49 36.99114 -7.86105 9580 ft 296 kts 77°
2026-05-06 14:49 36.99571 -7.83563 10062 ft 302 kts 78°
2026-05-06 14:49 37.00040 -7.80922 10235 ft 320 kts 78°
2026-05-06 14:49 37.00539 -7.78127 10358 ft 337 kts 78°
2026-05-06 14:50 37.01061 -7.75197 10491 ft 353 kts 78°
2026-05-06 14:50 37.01611 -7.72146 10740 ft 363 kts 78°
2026-05-06 14:50 37.02167 -7.69042 11193 ft 368 kts 78°
2026-05-06 14:50 37.02730 -7.65901 11669 ft 371 kts 78°
2026-05-06 14:51 37.03300 -7.62735 12207 ft 373 kts 78°
2026-05-06 14:51 37.03866 -7.59550 12671 ft 377 kts 78°
2026-05-06 14:51 37.04434 -7.56330 13181 ft 380 kts 78°
2026-05-06 14:51 37.04997 -7.53136 13682 ft 382 kts 78°
2026-05-06 14:52 37.05576 -7.49871 14104 ft 386 kts 78°
2026-05-06 14:52 37.06159 -7.46583 14535 ft 388 kts 78°
2026-05-06 14:52 37.06744 -7.43277 14960 ft 391 kts 78°
2026-05-06 14:52 37.07334 -7.39939 15372 ft 394 kts 77°
2026-05-06 14:53 37.08173 -7.36668 15756 ft 397 kts 67°
2026-05-06 14:53 37.09267 -7.33476 16156 ft 400 kts 67°
2026-05-06 14:53 37.10367 -7.30268 16546 ft 403 kts 67°
2026-05-06 14:53 37.11473 -7.27031 16938 ft 405 kts 67°
2026-05-06 14:54 37.12584 -7.23776 17309 ft 408 kts 67°
2026-05-06 14:54 37.13705 -7.20492 17667 ft 411 kts 67°
2026-05-06 14:54 37.14835 -7.17175 18011 ft 414 kts 67°
2026-05-06 14:54 37.15966 -7.13845 18337 ft 416 kts 67°
2026-05-06 14:55 37.17099 -7.10496 18629 ft 418 kts 67°
2026-05-06 14:55 37.18232 -7.07132 18931 ft 420 kts 67°
2026-05-06 14:55 37.19352 -7.03732 19208 ft 422 kts 70°
2026-05-06 14:55 37.20154 -7.00178 19485 ft 424 kts 77°
2026-05-06 14:56 37.20819 -6.96615 19764 ft 426 kts 77°
2026-05-06 14:56 37.21501 -6.92984 20046 ft 429 kts 77°
2026-05-06 14:56 37.22186 -6.89337 20338 ft 431 kts 77°
2026-05-06 14:56 37.22871 -6.85677 20625 ft 433 kts 77°
2026-05-06 14:57 37.23559 -6.81985 20882 ft 435 kts 77°
2026-05-06 14:57 37.24246 -6.78281 21165 ft 437 kts 77°
2026-05-06 14:57 37.24938 -6.74551 21458 ft 439 kts 77°
2026-05-06 14:57 37.25636 -6.70808 21766 ft 442 kts 77°
2026-05-06 14:58 37.26338 -6.67048 22056 ft 444 kts 77°
2026-05-06 14:58 37.27043 -6.63265 22344 ft 446 kts 78°
2026-05-06 14:58 37.27746 -6.59461 22632 ft 449 kts 78°
2026-05-06 14:58 37.28449 -6.55630 22933 ft 451 kts 78°
2026-05-06 14:59 37.29152 -6.51781 23223 ft 453 kts 78°
2026-05-06 14:59 37.29859 -6.47919 23512 ft 455 kts 78°
2026-05-06 14:59 37.30559 -6.44083 23763 ft 458 kts 78°
2026-05-06 14:59 37.31273 -6.40182 23998 ft 460 kts 78°
2026-05-06 15:00 37.31991 -6.36258 24230 ft 462 kts 78°
2026-05-06 15:00 37.32710 -6.32318 24458 ft 464 kts 78°
2026-05-06 15:00 37.33434 -6.28359 24688 ft 466 kts 78°
2026-05-06 15:00 37.34159 -6.24381 24912 ft 468 kts 78°
2026-05-06 15:01 37.34881 -6.20386 25137 ft 470 kts 78°
2026-05-06 15:01 37.35601 -6.16378 25366 ft 471 kts 78°
2026-05-06 15:01 37.36325 -6.12347 25588 ft 473 kts 78°
2026-05-06 15:01 37.37051 -6.08299 25799 ft 475 kts 79°
2026-05-06 15:02 37.37781 -6.04225 25991 ft 478 kts 79°
2026-05-06 15:02 37.38503 -6.00194 26198 ft 480 kts 79°
2026-05-06 15:02 37.39237 -5.96096 26436 ft 482 kts 79°
2026-05-06 15:02 37.39974 -5.91970 26650 ft 484 kts 79°
2026-05-06 15:03 37.40712 -5.87826 26865 ft 486 kts 79°
2026-05-06 15:03 37.41451 -5.83665 27077 ft 488 kts 79°
2026-05-06 15:03 37.42192 -5.79491 27287 ft 490 kts 79°
2026-05-06 15:03 37.43131 -5.75355 27484 ft 493 kts 71°
2026-05-06 15:04 37.44472 -5.71366 27675 ft 496 kts 67°
2026-05-06 15:04 37.45875 -5.67389 27814 ft 499 kts 67°
2026-05-06 15:04 37.47283 -5.63377 27972 ft 501 kts 67°
2026-05-06 15:04 37.48690 -5.59352 28137 ft 504 kts 67°
2026-05-06 15:05 37.50097 -5.55309 28302 ft 505 kts 68°
2026-05-06 15:05 37.51512 -5.51246 28468 ft 507 kts 68°
2026-05-06 15:05 37.52927 -5.47174 28629 ft 508 kts 68°
2026-05-06 15:05 37.54346 -5.43089 28783 ft 510 kts 68°
2026-05-06 15:06 37.55770 -5.38989 28929 ft 511 kts 68°
2026-05-06 15:06 37.57177 -5.34933 29098 ft 512 kts 68°
2026-05-06 15:06 37.58602 -5.30822 29265 ft 512 kts 68°
2026-05-06 15:06 37.60030 -5.26701 29454 ft 513 kts 68°
2026-05-06 15:07 37.61457 -5.22583 29677 ft 512 kts 68°
2026-05-06 15:07 37.62882 -5.18464 29858 ft 512 kts 68°
2026-05-06 15:07 37.64306 -5.14343 30031 ft 513 kts 68°
2026-05-06 15:07 37.65729 -5.10216 30192 ft 513 kts 68°
2026-05-06 15:08 37.67150 -5.06088 30357 ft 513 kts 68°
2026-05-06 15:08 37.68563 -5.01966 30523 ft 512 kts 68°
2026-05-06 15:08 37.69977 -4.97833 30701 ft 512 kts 68°
2026-05-06 15:08 37.71387 -4.93706 30843 ft 512 kts 68°
2026-05-06 15:09 37.72805 -4.89562 30893 ft 515 kts 68°
2026-05-06 15:09 37.75666 -4.81192 30896 ft 522 kts 68°
2026-05-06 15:10 37.78557 -4.72707 30892 ft 528 kts 68°
2026-05-06 15:10 37.81456 -4.64145 30899 ft 531 kts 68°
2026-05-06 15:11 37.84358 -4.55546 30887 ft 531 kts 68°
2026-05-06 15:11 37.87241 -4.47008 30913 ft 531 kts 68°
2026-05-06 15:12 37.90129 -4.38381 30896 ft 532 kts 68°
2026-05-06 15:12 37.93013 -4.29751 30899 ft 532 kts 68°
2026-05-06 15:13 37.95895 -4.21137 30887 ft 531 kts 68°
2026-05-06 15:13 37.98770 -4.12506 30892 ft 532 kts 68°
2026-05-06 15:14 38.01641 -4.03868 30890 ft 532 kts 69°
2026-05-06 15:14 38.04485 -3.95273 30881 ft 532 kts 69°
2026-05-06 15:15 38.07337 -3.86613 30884 ft 531 kts 69°
2026-05-06 15:15 38.10181 -3.77959 30883 ft 531 kts 68°
2026-05-06 15:16 38.13025 -3.69305 30892 ft 531 kts 69°
2026-05-06 15:16 38.15578 -3.60516 30907 ft 528 kts 79°
2026-05-06 15:17 38.17119 -3.51400 30902 ft 528 kts 80°
2026-05-06 15:17 38.18658 -3.42263 30891 ft 528 kts 80°
2026-05-06 15:18 38.20197 -3.33126 30909 ft 528 kts 80°
2026-05-06 15:18 38.21722 -3.23998 30902 ft 528 kts 81°
2026-05-06 15:19 38.23225 -3.14876 30905 ft 527 kts 81°
2026-05-06 15:19 38.24713 -3.05803 30894 ft 527 kts 81°
2026-05-06 15:20 38.26213 -2.96678 30895 ft 526 kts 80°
2026-05-06 15:20 38.27711 -2.87561 30908 ft 526 kts 80°
2026-05-06 15:21 38.29192 -2.78437 30904 ft 526 kts 81°
2026-05-06 15:21 38.30655 -2.69316 30916 ft 526 kts 81°
2026-05-06 15:22 38.32115 -2.60178 30891 ft 527 kts 80°
2026-05-06 15:22 38.33576 -2.51032 30903 ft 527 kts 80°
2026-05-06 15:23 38.35034 -2.41942 30899 ft 527 kts 79°
2026-05-06 15:23 38.37678 -2.33234 30894 ft 529 kts 59°
2026-05-06 15:24 38.42030 -2.25686 30883 ft 529 kts 50°
2026-05-06 15:24 38.46584 -2.18310 30885 ft 529 kts 50°
2026-05-06 15:25 38.51133 -2.10899 30906 ft 530 kts 51°
2026-05-06 15:25 38.55681 -2.03476 30909 ft 531 kts 51°
2026-05-06 15:26 38.60232 -1.96043 30916 ft 531 kts 50°
2026-05-06 15:26 38.64785 -1.88598 30932 ft 531 kts 50°
2026-05-06 15:27 38.69300 -1.81192 30936 ft 531 kts 50°
2026-05-06 15:27 38.73839 -1.73738 30935 ft 530 kts 50°
2026-05-06 15:28 38.78377 -1.66276 30935 ft 530 kts 51°
2026-05-06 15:28 38.82889 -1.58808 30933 ft 530 kts 51°
2026-05-06 15:29 38.87402 -1.51326 30926 ft 530 kts 51°
2026-05-06 15:29 38.91919 -1.43820 30936 ft 531 kts 51°
2026-05-06 15:30 38.96439 -1.36320 30943 ft 531 kts 51°
2026-05-06 15:30 39.00928 -1.28854 30946 ft 531 kts 51°
2026-05-06 15:31 39.05429 -1.21320 30929 ft 531 kts 51°
2026-05-06 15:31 39.09927 -1.13775 30912 ft 531 kts 51°
2026-05-06 15:32 39.16660 -1.02464 30950 ft 530 kts 51°
2026-05-06 15:32 39.21139 -0.94925 30933 ft 529 kts 51°
2026-05-06 15:33 39.24853 -0.88647 30948 ft 529 kts 51°
2026-05-06 15:33 39.29322 -0.81088 30934 ft 529 kts 51°
2026-05-06 15:34 39.33782 -0.73534 30921 ft 529 kts 51°
2026-05-06 15:34 39.38239 -0.65957 30947 ft 530 kts 51°
2026-05-06 15:35 39.42694 -0.58363 30943 ft 530 kts 51°
2026-05-06 15:35 39.47147 -0.50748 30936 ft 530 kts 52°
2026-05-06 15:36 39.51995 -0.43608 30933 ft 528 kts 44°
2026-05-06 15:36 39.57030 -0.36736 30933 ft 528 kts 44°
2026-05-06 15:37 39.62095 -0.29813 30936 ft 529 kts 44°
2026-05-06 15:37 39.67170 -0.22864 30929 ft 530 kts 44°
2026-05-06 15:38 39.72237 -0.15897 30929 ft 531 kts 44°
2026-05-06 15:38 39.77311 -0.08890 30931 ft 532 kts 45°
2026-05-06 15:39 39.82344 -0.01930 30953 ft 532 kts 44°
2026-05-06 15:39 39.87415 0.05094 30935 ft 533 kts 44°
2026-05-06 15:40 39.92490 0.12141 30936 ft 534 kts 45°
2026-05-06 15:40 39.97561 0.19214 30937 ft 534 kts 45°
2026-05-06 15:41 40.02629 0.26307 30937 ft 534 kts 45°
2026-05-06 15:41 40.07695 0.33383 30960 ft 533 kts 44°
2026-05-06 15:42 40.12758 0.40467 30955 ft 533 kts 45°
2026-05-06 15:42 40.17781 0.47519 30949 ft 534 kts 45°
2026-05-06 15:43 40.22839 0.54639 30939 ft 534 kts 45°
2026-05-06 15:43 40.27893 0.61764 30968 ft 534 kts 45°
2026-05-06 15:44 40.32936 0.68881 30962 ft 533 kts 45°
2026-05-06 15:44 40.37968 0.76014 30951 ft 532 kts 45°
2026-05-06 15:45 40.42985 0.83168 30925 ft 533 kts 45°
2026-05-06 15:45 40.47972 0.90288 30948 ft 534 kts 45°
2026-05-06 15:46 40.52996 0.97460 30951 ft 533 kts 45°
2026-05-06 15:46 40.58010 1.04645 30946 ft 533 kts 45°
2026-05-06 15:47 40.63011 1.11833 30945 ft 532 kts 45°
2026-05-06 15:47 40.68014 1.19039 30914 ft 533 kts 45°
2026-05-06 15:48 40.73015 1.26260 30913 ft 534 kts 45°
2026-05-06 15:48 40.78024 1.33501 30915 ft 534 kts 45°
2026-05-06 15:49 40.83041 1.40762 30923 ft 535 kts 45°
2026-05-06 15:49 40.88019 1.47985 30929 ft 535 kts 45°
2026-05-06 15:50 40.93019 1.55276 30955 ft 535 kts 45°
2026-05-06 15:50 40.98013 1.62576 30951 ft 534 kts 45°
2026-05-06 15:51 41.02997 1.69879 30942 ft 534 kts 46°
2026-05-06 15:51 41.07983 1.77191 30940 ft 534 kts 45°
2026-05-06 15:52 41.12958 1.84500 30964 ft 534 kts 46°
2026-05-06 15:52 41.17926 1.91826 30953 ft 533 kts 46°
2026-05-06 15:53 41.22885 1.99153 30955 ft 533 kts 46°
2026-05-06 15:53 41.27811 2.06457 30955 ft 534 kts 46°
2026-05-06 15:54 41.32037 2.14560 30953 ft 536 kts 64°
2026-05-06 15:54 41.35162 2.23557 30979 ft 535 kts 65°
2026-05-06 15:55 41.38280 2.32544 30950 ft 534 kts 65°
2026-05-06 15:55 41.41393 2.41539 30935 ft 535 kts 65°
2026-05-06 15:56 41.44497 2.50545 30925 ft 535 kts 65°
2026-05-06 15:56 41.47599 2.59567 30922 ft 535 kts 65°
2026-05-06 15:57 41.50682 2.68538 30891 ft 535 kts 66°
2026-05-06 15:57 41.53770 2.77581 30934 ft 536 kts 66°
2026-05-06 15:58 41.56837 2.86631 30941 ft 534 kts 66°
2026-05-06 15:58 41.59902 2.95677 30943 ft 534 kts 66°
2026-05-06 15:59 41.62959 3.04724 30941 ft 534 kts 66°
2026-05-06 15:59 41.66009 3.13773 30919 ft 535 kts 66°
2026-05-06 16:00 41.69061 3.22864 30925 ft 536 kts 66°
2026-05-06 16:00 41.72112 3.31979 30931 ft 537 kts 66°
2026-05-06 16:01 41.75155 3.41114 30965 ft 537 kts 66°
2026-05-06 16:01 41.78178 3.50187 30961 ft 537 kts 66°
2026-05-06 16:02 41.81236 3.59386 30961 ft 536 kts 67°
2026-05-06 16:02 41.84230 3.68470 30957 ft 536 kts 67°
2026-05-06 16:03 41.87238 3.77622 30953 ft 536 kts 67°
2026-05-06 16:03 41.90242 3.86784 30929 ft 536 kts 67°
2026-05-06 16:04 41.93239 3.95955 30968 ft 536 kts 67°
2026-05-06 16:04 41.96226 4.05131 30969 ft 536 kts 68°
2026-05-06 16:05 41.99207 4.14317 30971 ft 536 kts 68°
2026-05-06 16:05 42.02164 4.23448 30950 ft 536 kts 68°
2026-05-06 16:06 42.05137 4.32654 30950 ft 536 kts 68°
2026-05-06 16:06 42.08278 4.41763 30952 ft 538 kts 59°
2026-05-06 16:07 42.12568 4.50006 30984 ft 538 kts 53°
2026-05-06 16:07 42.16967 4.58165 30940 ft 537 kts 54°
2026-05-06 16:08 42.21356 4.66330 30935 ft 538 kts 54°
2026-05-06 16:08 42.25741 4.74523 30938 ft 539 kts 54°
2026-05-06 16:09 42.30116 4.82744 30944 ft 539 kts 54°
2026-05-06 16:09 42.34464 4.90918 30958 ft 539 kts 54°
2026-05-06 16:10 42.38841 4.99153 30929 ft 539 kts 54°
2026-05-06 16:10 42.43211 5.07402 30929 ft 540 kts 54°
2026-05-06 16:11 42.47578 5.15672 30934 ft 540 kts 54°
2026-05-06 16:11 42.51949 5.23964 30967 ft 541 kts 54°
2026-05-06 16:12 42.56311 5.32267 30959 ft 541 kts 55°
2026-05-06 16:12 42.60665 5.40591 30919 ft 541 kts 55°
2026-05-06 16:13 42.64990 5.48872 30925 ft 541 kts 55°
2026-05-06 16:13 42.69335 5.57225 30933 ft 541 kts 55°
2026-05-06 16:14 42.73680 5.65597 30934 ft 541 kts 55°
2026-05-06 16:14 42.78021 5.73964 30901 ft 541 kts 56°
2026-05-06 16:15 42.82355 5.82360 30910 ft 542 kts 56°
2026-05-06 16:15 42.86680 5.90771 30927 ft 542 kts 56°
2026-05-06 16:16 42.90997 5.99192 30938 ft 541 kts 56°
2026-05-06 16:16 42.95309 6.07616 30932 ft 541 kts 56°
2026-05-06 16:17 42.99621 6.16051 30903 ft 541 kts 56°
2026-05-06 16:17 43.03930 6.24503 30910 ft 542 kts 56°
2026-05-06 16:18 43.08221 6.32973 30931 ft 542 kts 56°
2026-05-06 16:18 43.12508 6.41450 30919 ft 542 kts 56°
2026-05-06 16:19 43.16773 6.49886 30869 ft 542 kts 57°
2026-05-06 16:19 43.21089 6.58451 30873 ft 542 kts 57°
2026-05-06 16:20 43.25390 6.66863 30884 ft 543 kts 55°
2026-05-06 16:20 43.29852 6.75228 30870 ft 543 kts 54°
2026-05-06 16:21 43.34333 6.83587 30857 ft 543 kts 55°
2026-05-06 16:21 43.38765 6.91986 30822 ft 543 kts 56°
2026-05-06 16:22 43.43173 7.00426 30865 ft 543 kts 56°
2026-05-06 16:22 43.47575 7.08888 30849 ft 544 kts 56°
2026-05-06 16:23 43.51986 7.17361 30844 ft 544 kts 56°
2026-05-06 16:23 43.56396 7.25835 30840 ft 544 kts 56°
2026-05-06 16:24 43.60802 7.34342 30869 ft 544 kts 56°
2026-05-06 16:24 43.64455 7.41418 30858 ft 545 kts 56°
2026-05-06 16:25 43.68847 7.49932 30850 ft 545 kts 56°
2026-05-06 16:25 43.73237 7.58463 30832 ft 545 kts 56°
2026-05-06 16:26 43.77614 7.67020 30826 ft 544 kts 56°
2026-05-06 16:26 43.81978 7.75591 30835 ft 544 kts 57°
2026-05-06 16:27 43.86189 7.84278 30844 ft 543 kts 59°
2026-05-06 16:27 43.90194 7.93070 30845 ft 543 kts 60°
2026-05-06 16:28 43.94201 8.01948 30818 ft 542 kts 60°
2026-05-06 16:28 43.98251 8.10773 30835 ft 542 kts 59°
2026-05-06 16:29 44.02341 8.19594 30843 ft 543 kts 59°
2026-05-06 16:29 44.06420 8.28437 30845 ft 543 kts 60°
2026-05-06 16:30 44.09793 8.35810 30830 ft 543 kts 60°
2026-05-06 16:30 44.14524 8.46207 30828 ft 545 kts 60°
2026-05-06 16:31 44.18586 8.55138 30828 ft 546 kts 60°
2026-05-06 16:31 44.22643 8.64093 30829 ft 546 kts 60°
2026-05-06 16:32 44.26693 8.73068 30813 ft 547 kts 60°
2026-05-06 16:32 44.30739 8.82054 30883 ft 547 kts 60°
2026-05-06 16:33 44.34755 8.90994 30896 ft 547 kts 60°
2026-05-06 16:34 44.40798 9.04528 30894 ft 547 kts 60°
2026-05-06 16:34 44.44786 9.13585 30852 ft 545 kts 61°
2026-05-06 16:35 44.48643 9.22709 30884 ft 544 kts 62°
2026-05-06 16:35 44.52452 9.31860 30876 ft 543 kts 62°
2026-05-06 16:36 44.56275 9.41012 30881 ft 543 kts 62°
2026-05-06 16:36 44.60108 9.50133 30875 ft 542 kts 62°
2026-05-06 16:37 44.63904 9.59201 30860 ft 542 kts 62°
2026-05-06 16:37 44.67712 9.68347 30843 ft 543 kts 62°
2026-05-06 16:38 44.71513 9.77518 30832 ft 542 kts 63°
2026-05-06 16:38 44.75308 9.86689 30831 ft 542 kts 62°
2026-05-06 16:39 44.79103 9.95876 30823 ft 543 kts 62°
2026-05-06 16:39 44.82885 10.05099 30831 ft 544 kts 62°
2026-05-06 16:40 44.86671 10.14331 30829 ft 545 kts 62°
2026-05-06 16:40 44.90458 10.23581 30835 ft 545 kts 63°
2026-05-06 16:41 44.94228 10.32860 30863 ft 545 kts 63°
2026-05-06 16:41 44.97987 10.42146 30850 ft 544 kts 62°
2026-05-06 16:42 45.01715 10.51367 30863 ft 543 kts 62°
2026-05-06 16:42 45.05460 10.60653 30872 ft 543 kts 62°
2026-05-06 16:43 45.09191 10.69937 30891 ft 543 kts 63°
2026-05-06 16:43 45.12907 10.79214 31220 ft 539 kts 62°
2026-05-06 16:43 45.14782 10.83793 31456 ft 537 kts 62°
2026-05-06 16:44 45.16685 10.88334 31718 ft 534 kts 61°
2026-05-06 16:44 45.18599 10.92849 31866 ft 535 kts 61°
2026-05-06 16:44 45.20523 10.97384 31895 ft 537 kts 61°
2026-05-06 16:45 45.24357 11.06504 31912 ft 539 kts 62°
2026-05-06 16:45 45.28171 11.15678 31889 ft 540 kts 62°
2026-05-06 16:46 45.31979 11.24897 31883 ft 541 kts 62°
2026-05-06 16:46 45.35780 11.34118 31866 ft 541 kts 62°
2026-05-06 16:47 45.39584 11.43359 31871 ft 541 kts 62°
2026-05-06 16:47 45.43343 11.52552 31881 ft 541 kts 62°
2026-05-06 16:48 45.47160 11.61778 31877 ft 541 kts 62°
2026-05-06 16:48 45.51019 11.70990 31886 ft 541 kts 62°
2026-05-06 16:49 45.54860 11.80223 31863 ft 540 kts 62°
2026-05-06 16:49 45.58663 11.89450 31929 ft 539 kts 62°
2026-05-06 16:50 45.62458 11.98689 31940 ft 539 kts 62°
2026-05-06 16:50 45.66248 12.07920 31934 ft 538 kts 62°
2026-05-06 16:51 45.70026 12.17170 31937 ft 538 kts 62°
2026-05-06 16:51 45.73795 12.26431 31878 ft 538 kts 62°
2026-05-06 16:52 45.77529 12.35641 31909 ft 537 kts 62°
2026-05-06 16:52 45.81265 12.44884 31912 ft 536 kts 62°
2026-05-06 16:53 45.84993 12.54152 31914 ft 535 kts 62°
2026-05-06 16:53 45.88711 12.63412 31917 ft 535 kts 62°
2026-05-06 16:54 45.92427 12.72673 31915 ft 535 kts 62°
2026-05-06 16:54 45.96101 12.81880 31906 ft 534 kts 62°
2026-05-06 16:55 45.99780 12.91123 31916 ft 532 kts 62°
2026-05-06 16:55 46.03445 13.00380 31912 ft 532 kts 62°
2026-05-06 16:56 46.07098 13.09639 31911 ft 531 kts 62°
2026-05-06 16:56 46.10749 13.18895 31921 ft 531 kts 62°
2026-05-06 16:57 46.14383 13.28149 31899 ft 530 kts 62°
2026-05-06 16:57 46.17967 13.37334 31600 ft 516 kts 62°
2026-05-06 16:57 46.19715 13.41820 31116 ft 509 kts 62°
2026-05-06 16:58 46.21445 13.46259 30645 ft 505 kts 62°
2026-05-06 16:58 46.23128 13.50611 30193 ft 501 kts 62°
2026-05-06 16:58 46.24797 13.55023 29696 ft 499 kts 63°
2026-05-06 16:58 46.26429 13.59419 29157 ft 494 kts 63°
2026-05-06 16:59 46.28033 13.63785 28632 ft 489 kts 63°
2026-05-06 16:59 46.29618 13.68109 28112 ft 484 kts 63°
2026-05-06 16:59 46.31190 13.72387 27601 ft 479 kts 63°
2026-05-06 16:59 46.32750 13.76613 27065 ft 474 kts 63°
2026-05-06 17:00 46.34298 13.80792 26577 ft 468 kts 63°
2026-05-06 17:00 46.35827 13.84916 26098 ft 462 kts 63°
2026-05-06 17:00 46.37335 13.88989 25620 ft 456 kts 63°
2026-05-06 17:00 46.38824 13.93017 25160 ft 451 kts 63°
2026-05-06 17:01 46.40295 13.97000 24701 ft 446 kts 63°
2026-05-06 17:01 46.41749 14.00949 24256 ft 442 kts 63°
2026-05-06 17:01 46.43183 14.04858 23821 ft 437 kts 63°
2026-05-06 17:01 46.44604 14.08741 23361 ft 434 kts 64°
2026-05-06 17:02 46.46012 14.12591 22845 ft 430 kts 64°
2026-05-06 17:02 46.47402 14.16411 22335 ft 427 kts 64°
2026-05-06 17:02 46.48781 14.20215 21834 ft 424 kts 64°
2026-05-06 17:02 46.50133 14.23947 21324 ft 422 kts 64°
2026-05-06 17:03 46.51516 14.27760 20826 ft 430 kts 64°
2026-05-06 17:03 46.52912 14.31617 20346 ft 432 kts 64°
2026-05-06 17:03 46.54310 14.35470 19884 ft 433 kts 64°
2026-05-06 17:03 46.55778 14.39436 19422 ft 459 kts 63°
2026-05-06 17:04 46.57339 14.43565 18961 ft 469 kts 63°
2026-05-06 17:04 46.58933 14.47716 18523 ft 470 kts 63°
2026-05-06 17:04 46.60527 14.51854 18055 ft 468 kts 62°
2026-05-06 17:04 46.62109 14.55978 17557 ft 466 kts 63°
2026-05-06 17:05 46.63678 14.60090 17062 ft 463 kts 63°
2026-05-06 17:05 46.65230 14.64192 16584 ft 460 kts 63°
2026-05-06 17:05 46.66744 14.68214 16117 ft 457 kts 63°
2026-05-06 17:05 46.68261 14.72260 15636 ft 454 kts 63°
2026-05-06 17:06 46.69771 14.76290 15145 ft 451 kts 63°
2026-05-06 17:06 46.71266 14.80284 14683 ft 447 kts 63°
2026-05-06 17:06 46.72602 14.84345 14183 ft 441 kts 73°
2026-05-06 17:06 46.73339 14.88604 13597 ft 429 kts 80°
2026-05-06 17:07 46.73966 14.92833 12929 ft 423 kts 80°
2026-05-06 17:07 46.74573 14.96995 12287 ft 418 kts 81°
2026-05-06 17:07 46.75168 15.01109 11649 ft 412 kts 81°
2026-05-06 17:07 46.75754 15.05174 11026 ft 408 kts 81°
2026-05-06 17:08 46.76335 15.09206 10412 ft 404 kts 81°
2026-05-06 17:08 46.76909 15.13193 9809 ft 399 kts 81°
2026-05-06 17:08 46.77475 15.17137 9157 ft 395 kts 80°
2026-05-06 17:08 46.78039 15.21033 8508 ft 391 kts 80°
2026-05-06 17:09 46.78597 15.24904 7809 ft 388 kts 81°
2026-05-06 17:09 46.79151 15.28744 7134 ft 385 kts 80°
2026-05-06 17:09 46.79746 15.32490 6474 ft 383 kts 75°
2026-05-06 17:09 46.80789 15.36056 5822 ft 382 kts 61°
2026-05-06 17:10 46.82307 15.39223 5130 ft 379 kts 48°
2026-05-06 17:10 46.84215 15.41833 4447 ft 375 kts 36°
2026-05-06 17:10 46.86414 15.43760 4068 ft 360 kts 23°
2026-05-06 17:10 46.88699 15.44954 3953 ft 338 kts 12°
2026-05-06 17:11 46.90932 15.45502 3971 ft 314 kts
2026-05-06 17:11 46.93035 15.45514 3980 ft 292 kts 351°
2026-05-06 17:11 46.94989 15.45096 3975 ft 278 kts 346°
2026-05-06 17:11 46.96886 15.44808 3875 ft 273 kts
2026-05-06 17:12 46.98756 15.45390 3360 ft 280 kts 19°
2026-05-06 17:12 47.00545 15.46563 2951 ft 278 kts 26°
2026-05-06 17:12 47.02256 15.47564 2958 ft 252 kts
2026-05-06 17:12 47.03891 15.47571 2902 ft 220 kts 343°
2026-05-06 17:13 47.04860 15.46401 3124 ft 154 kts 270°
2026-05-06 17:13 47.04465 15.45221 2577 ft 148 kts 202°
2026-05-06 17:13 47.03470 15.44630 2031 ft 151 kts 206°
2026-05-06 17:13 47.02577 15.43900 1685 ft 145 kts 199°
2026-05-06 17:14 47.01634 15.43507 1434 ft 139 kts 185°
2026-05-06 17:14 47.00693 15.43559 1217 ft 134 kts 174°
2026-05-06 17:14 46.99795 15.43779 1112 ft 118 kts 170°
2026-05-06 17:14 46.99340 15.43902 1109 ft 32 kts 170°
2026-05-06 17:15 46.99282 15.44006 1102 ft 13 kts 55°